Flag for Canada Weather past 2 weeks in Whitehorse, Yukon Territory, Canada

Now
32 °F

Mostly cloudy.


Feels Like: 25 °F
Forecast: -6 / 21 °F
Wind: 8 mph from Southwest

Location: Withehorse

Current Time: Jan 25, 2015 at 6:55:41 PM

Latest Report: Jan 25, 2015 at 6:00 PM


Visibility: 15 mi

Pressure: 29.55 "Hg

Humidity: 37%

Dew point: 9 °F

Location of WhitehorseLocation

Historic Weather in Whitehorse — Graph

°F

Whitehorse temperature yesterday

Maximum temperature yesterday: 36 °F (at 12:00 AM)
Minimum temperature yesterday: 27 °F (at 10:00 PM)
Average temperature yesterday: 32 °F

Past Weeks' High & Low Weather Summary

 TemperatureHumidityPressure
High41 °F (Jan 13, 5:00 PM)100% (Jan 18, 9:00 AM)30.20 "Hg (Jan 18, 9:00 AM)
Low10 °F (Jan 10, 7:00 PM)52% (Jan 16, 6:00 AM)29.06 "Hg (Jan 15, 8:00 PM)
Average28 °F85%29.63 "Hg
* Reported Jan 10 5:00 PM — Jan 25 5:00 PM, Whitehorse, Weather by CustomWeather, © 2014

Note: Actual official high and low records may vary slightly from our data, if they occured in-between our weather recording intervals... More about our weather records

Advertising

Whitehorse weather history for previous 24 hours

 ConditionsComfort  
Time TempWeatherWind HumidityBarometerVisibility
5:00 PM
Jan 25
34 °FPassing clouds.9 mph75%29.52 "Hg25 mi
4:00 PM34 °FPartly sunny.9 mph81%29.52 "Hg30 mi
3:00 PM32 °FSnow flurries. Partly sunny.9 mph87%29.49 "Hg30 mi
2:00 PM32 °FBroken clouds.14 mph80%29.48 "Hg30 mi
1:00 PM34 °FBroken clouds.13 mph81%29.46 "Hg30 mi
12:00 PM34 °FBroken clouds.22 mph75%29.44 "Hg20 mi
11:00 AM30 °FBroken clouds.16 mph80%29.42 "Hg40 mi
10:00 AM28 °FBroken clouds.21 mph86%29.42 "Hg40 mi
9:00 AM28 °FPartly cloudy.21 mph93%29.40 "Hg40 mi
8:00 AM32 °FPartly cloudy.18 mph80%29.39 "Hg15 mi
7:00 AM30 °FMostly cloudy.14 mph86%29.36 "Hg15 mi
6:00 AM30 °FMostly cloudy.15 mph86%29.32 "Hg15 mi
5:00 AM30 °FPassing clouds.14 mph86%29.29 "Hg15 mi
4:00 AM28 °FPassing clouds.15 mph93%29.26 "Hg15 mi
3:00 AM28 °FPassing clouds.10 mph93%29.23 "Hg15 mi
2:00 AM27 °FLight snow. Mostly cloudy.2 mph100%29.22 "Hg10 mi
1:00 AM28 °FLight snow. Overcast.No wind93%29.21 "Hg10 mi
12:00 AM28 °FLight snow. Overcast.3 mph93%29.19 "Hg10 mi
11:00 PM
Jan 24
28 °FLight snow. Mostly cloudy.3 mph100%29.18 "Hg10 mi
10:00 PM27 °FLight snow. Mostly cloudy.5 mph93%29.21 "Hg10 mi
9:00 PM30 °FLight snow. Mostly cloudy.5 mph80%29.25 "Hg10 mi
8:00 PM30 °FOvercast.2 mph80%29.30 "Hg15 mi
7:00 PM32 °FMostly cloudy.9 mph75%29.34 "Hg15 mi
6:00 PM32 °FOvercast.13 mph75%29.36 "Hg15 mi
Weather by CustomWeather, © 2014

See weather overviewHow to use our weather pages